Weather History for KMKN - March, 2014

Change the Weather History Date:

Saturday, March 1, 2014

  Actual Average (KSEP) Record (KSEP)
Temperature  
Mean Temperature 70 °F -  
Max Temperature 89 °F 65 °F 91 °F (2006)
Min Temperature 51 °F 40 °F 12 °F (1922)
Cooling Degree Days 5    
Growing Degree Days 20 (Base 50)    
Moisture  
Dew Point 44 °F    
Average Humidity 41    
Maximum Humidity 73    
Minimum Humidity 17    
Precipitation  
Precipitation 0.00 in - - ()
Sea Level Pressure  
Sea Level Pressure 29.89 in    
Wind  
Wind Speed 9 mph (South)    
Max Wind Speed 22 mph    
Max Gust Speed 29 mph    
Visibility 10 miles    
Events      
Averages and records for this station are not official NWS values.
T = Trace of Precipitation, MM = Missing Value Source: NWS Daily Summary

Daily Weather History Graph

Daily Weather History Graph

Search for Another Location

Airport or City:

Trip Planner

Search our weather history database for the weather conditions in past years. The results will help you decide how hot, cold, wet, or windy it might be!

Date:

Astronomy

Mar. 01, 2014 Rise Set
Actual Time 7:01 AM CST 6:32 PM CST
Civil Twilight 6:37 AM CST 6:56 PM CST
Nautical Twilight 6:08 AM CST 7:25 PM CST
Astronomical Twilight 5:40 AM CST 7:53 PM CST
Moon 6:59 AM CST (3/1) 7:15 PM CST (3/1)
Length of Visible Light 12h 19m
Length of Day
11h 30m
New Moon, 0% of the Moon is Illuminated
Mar 1
New Moon
Mar 8
First Quarter
Mar 16
Full
Mar 23
Last Quarter
Mar 30
New

Hourly Weather History & Observations

Time (CST) Temp. Heat Index Dew Point Humidity Pressure Visibility Wind Dir Wind Speed Gust Speed Precip Events Conditions
12:15 AM 67.1 °F - 19.9 °F 17% 29.84 in 10.0 mi WSW 11.5 mph - N/A   Clear
12:35 AM 67.3 °F - 23.9 °F 19% 29.84 in 10.0 mi WSW 9.2 mph - N/A   Clear
12:55 AM 67.1 °F - 27.5 °F 23% 29.84 in 10.0 mi WSW 11.5 mph - N/A   Clear
1:15 AM 66.6 °F - 29.1 °F 25% 29.84 in 10.0 mi WSW 9.2 mph - N/A   Clear
1:35 AM 65.7 °F - 31.1 °F 27% 29.85 in 10.0 mi WSW 10.4 mph - N/A   Clear
1:55 AM 65.5 °F - 31.6 °F 28% 29.85 in 10.0 mi WSW 12.7 mph - N/A   Clear
2:15 AM 63.7 °F - 31.6 °F 30% 29.86 in 10.0 mi SW 6.9 mph - N/A   Clear
2:35 AM 61.0 °F - 30.0 °F 31% 29.86 in 10.0 mi Calm Calm - N/A   Clear
2:55 AM 59.7 °F - 30.2 °F 33% 29.86 in 10.0 mi Calm Calm - N/A   Clear
3:15 AM 54.0 °F - 30.9 °F 41% 29.87 in 10.0 mi West 3.5 mph - N/A   Clear
3:35 AM 59.7 °F - 31.3 °F 34% 29.86 in 10.0 mi WSW 5.8 mph - N/A   Clear
3:55 AM 60.4 °F - 32.0 °F 34% 29.86 in 10.0 mi Calm Calm - N/A   Clear
4:15 AM 56.7 °F - 32.0 °F 39% 29.87 in 10.0 mi Calm Calm - N/A   Clear
4:35 AM 53.6 °F - 31.3 °F 43% 29.88 in 10.0 mi Calm Calm - N/A   Clear
4:55 AM 55.6 °F - 31.5 °F 40% 29.88 in 10.0 mi Calm Calm - N/A   Clear
5:15 AM 55.0 °F - 31.8 °F 41% 29.89 in 10.0 mi Calm Calm - N/A   Clear
5:35 AM 55.4 °F - 31.8 °F 41% 29.89 in 10.0 mi SE 3.5 mph - N/A   Clear
5:55 AM 51.8 °F - 32.0 °F 47% 29.91 in 10.0 mi South 4.6 mph - N/A   Clear
6:15 AM 51.8 °F - 32.9 °F 49% 29.91 in 10.0 mi SSW 5.8 mph - N/A   Clear
6:35 AM 55.9 °F - 36.5 °F 48% 29.91 in 10.0 mi Calm Calm - N/A   Clear
6:55 AM 56.5 °F - 36.5 °F 47% 29.91 in 10.0 mi Calm Calm - N/A   Clear
7:15 AM 55.0 °F - 36.0 °F 49% 29.92 in 10.0 mi Calm Calm - N/A   Clear
7:35 AM 53.6 °F - 35.8 °F 51% 29.92 in 10.0 mi Calm Calm - N/A   Clear
7:55 AM 54.0 °F - 36.9 °F 52% 29.92 in 10.0 mi Calm Calm - N/A   Clear
8:15 AM 56.1 °F - 37.9 °F 51% 29.94 in 10.0 mi East 3.5 mph - N/A   Clear
8:35 AM 58.1 °F - 38.8 °F 49% 29.94 in 10.0 mi Calm Calm - N/A   Clear
8:55 AM 62.4 °F - 39.9 °F 44% 29.95 in 10.0 mi Calm Calm - N/A   Clear
9:15 AM 67.6 °F - 40.8 °F 38% 29.95 in 10.0 mi SW 4.6 mph - N/A   Clear
9:35 AM 72.1 °F - 40.8 °F 32% 29.95 in 10.0 mi WSW 5.8 mph - N/A   Clear
9:55 AM 75.2 °F - 40.5 °F 29% 29.95 in 10.0 mi WSW 5.8 mph - N/A   Clear
10:15 AM 77.4 °F - 39.0 °F 25% 29.95 in 10.0 mi SW 9.2 mph - N/A   Clear
10:35 AM 78.4 °F - 39.2 °F 24% 29.97 in 10.0 mi South 4.6 mph - N/A   Clear
10:55 AM 80.4 °F - 39.0 °F 23% 29.96 in 10.0 mi South 6.9 mph - N/A   Clear
11:15 AM 81.1 °F - 39.6 °F 23% 29.97 in 10.0 mi South 8.1 mph - N/A   Clear
11:35 AM 81.1 °F - 39.4 °F 23% 29.96 in 10.0 mi South 9.2 mph - N/A   Clear
11:55 AM 83.1 °F - 39.9 °F 22% 29.95 in 10.0 mi SSW 6.9 mph - N/A   Clear
12:15 PM 84.2 °F - 41.0 °F 22% 29.95 in 10.0 mi South 10.4 mph - N/A   Clear
12:35 PM 84.7 °F - 39.7 °F 20% 29.94 in 10.0 mi South 11.5 mph 17.3 mph N/A   Clear
12:55 PM 85.8 °F - 41.0 °F 21% 29.93 in 10.0 mi South 13.8 mph 18.4 mph N/A   Clear
1:15 PM 86.4 °F - 41.0 °F 20% 29.91 in 10.0 mi South 9.2 mph 17.3 mph N/A   Clear
1:35 PM 88.2 °F - 39.6 °F 18% 29.89 in 10.0 mi South 12.7 mph 20.7 mph N/A   Clear
1:55 PM 89.8 °F - 39.2 °F 17% 29.88 in 10.0 mi SSE 15.0 mph 19.6 mph N/A   Clear
2:15 PM 88.7 °F - 39.2 °F 18% 29.87 in 10.0 mi SSE 17.3 mph 23.0 mph N/A   Clear
2:35 PM 88.7 °F - 40.5 °F 18% 29.87 in 10.0 mi South 20.7 mph 24.2 mph N/A   Clear
2:55 PM 86.0 °F - 40.8 °F 20% 29.86 in 10.0 mi South 17.3 mph 28.8 mph N/A   Clear
3:15 PM 84.6 °F - 42.6 °F 23% 29.86 in 10.0 mi South 17.3 mph 23.0 mph N/A   Clear
3:35 PM 85.5 °F - 44.6 °F 24% 29.85 in 10.0 mi South 16.1 mph 24.2 mph N/A   Clear
3:55 PM 85.6 °F - 46.8 °F 26% 29.84 in 10.0 mi SSE 17.3 mph 21.9 mph N/A   Clear
4:15 PM 86.2 °F - 50.0 °F 29% 29.82 in 10.0 mi South 21.9 mph 28.8 mph N/A   Clear
4:35 PM 86.0 °F - 51.4 °F 30% 29.82 in 10.0 mi South 18.4 mph 24.2 mph N/A   Clear
4:55 PM 84.7 °F - 52.7 °F 33% 29.82 in 10.0 mi SSE 19.6 mph 27.6 mph N/A   Clear
5:20 PM 83.8 °F - 52.9 °F 34% 29.82 in 10.0 mi SSE 21.9 mph 28.8 mph N/A   Clear
5:35 PM 81.0 °F 80.7 °F 55.2 °F 41% 29.82 in 10.0 mi SSE 19.6 mph 26.5 mph N/A   Clear
5:55 PM 77.7 °F - 58.5 °F 51% 29.82 in 10.0 mi SSE 19.6 mph 24.2 mph N/A   Clear
6:15 PM 75.6 °F - 59.9 °F 58% 29.84 in 10.0 mi SSE 17.3 mph 23.0 mph N/A   Clear
6:35 PM 75.0 °F - 59.2 °F 58% 29.84 in 10.0 mi South 15.0 mph 24.2 mph N/A   Clear
6:55 PM 73.4 °F - 59.4 °F 61% 29.85 in 10.0 mi SSE 13.8 mph 21.9 mph N/A   Clear
7:15 PM 72.9 °F - 58.6 °F 61% 29.85 in 10.0 mi South 18.4 mph 23.0 mph N/A   Clear
7:35 PM 72.5 °F - 59.0 °F 62% 29.86 in 10.0 mi South 15.0 mph 24.2 mph N/A   Clear
7:55 PM 71.6 °F - 59.7 °F 66% 29.86 in 10.0 mi South 16.1 mph 26.5 mph N/A   Clear
8:15 PM 71.1 °F - 60.8 °F 70% 29.87 in 10.0 mi South 18.4 mph - N/A   Clear
8:35 PM 70.7 °F - 61.0 °F 71% 29.87 in 10.0 mi SSE 13.8 mph 21.9 mph N/A   Clear
8:55 PM 70.7 °F - 61.2 °F 72% 29.89 in 10.0 mi South 17.3 mph - N/A   Clear
9:15 PM 70.0 °F - 61.0 °F 73% 29.90 in 10.0 mi South 15.0 mph 21.9 mph N/A   Clear
9:35 PM 69.8 °F - 61.0 °F 73% 29.89 in 10.0 mi South 16.1 mph 21.9 mph N/A   Clear
10:00 PM 69.8 °F - 61.0 °F 73% 29.87 in 10.0 mi SSE 16.1 mph - N/A   Clear
10:15 PM 70.0 °F - 61.0 °F 73% 29.90 in 10.0 mi South 13.8 mph 17.3 mph N/A   Clear
10:35 PM 70.7 °F - 61.2 °F 72% 29.90 in 10.0 mi South 18.4 mph 25.3 mph N/A   Clear
10:55 PM 70.9 °F - 61.0 °F 71% 29.90 in 10.0 mi South 15.0 mph 26.5 mph N/A   Clear
11:15 PM 70.7 °F - 60.8 °F 71% 29.90 in 10.0 mi South 13.8 mph 20.7 mph N/A   Clear
11:35 PM 70.3 °F - 60.8 °F 72% 29.92 in 10.0 mi SSW 13.8 mph - N/A   Clear
11:55 PM 70.0 °F - 60.8 °F 73% 29.94 in 10.0 mi SW 8.1 mph - N/A   Scattered Clouds